Regional Weather Roundup
Issued by NWS New Orleans/Baton Rouge, LA

Home | Current Version | Previous Version | Text Only | Print | Product List | Glossary On
Versions: 1 2 3 4 5 6 7 8 9 10 11 12 13 14 15 16 17 18 19 20 21 22 23 24 25 26 27 28 29 30 31 32 33 34 35 36 37 38 39 40 41 42 43 44 45 46 47 48 49 50
628
ASUS44 KLIX 251012
RWRLIX
NEW ORLEANS REGIONAL WEATHER ROUNDUP
NATIONAL WEATHER SERVICE NEW ORLEANS LA
500 AM CDT WED MAY 25 2016

NOTE: "FAIR" INDICATES FEW OR NO CLOUDS BELOW 12,000 FEET WITH NO
      SIGNIFICANT WEATHER AND/OR OBSTRUCTIONS TO VISIBILITY.
      SKY/WX - SKY CONDITION AND SIGNIFICANT WEATHER.
      TMP - AIR TEMPERATURE.     DP    - DEWPOINT TEMPERATURE.
      RH  - RELATIVE HUMIDITY.   PRES  - PRESSURE.
      HI  - HEAT INDEX.          WCI   - WIND CHILL INDEX.

*  THESE STATIONS ARE NOT NWS OR FAA STATIONS AND ARE NOT UNDER
   NWS QUALITY CONTROL.

LAZ038-040-048-061>063-065>067-069-251100-
SOUTHEAST LOUISIANA

CITY           SKY/WX    TMP DP  RH WIND       PRES   REMARKS
N.O. AUDUBON     N/A     75  73  93 MISG        N/A
N.O. INTL ARPT PTCLDY    76  72  87 SE5       30.09R
N.O. LAKEFRONT PTCLDY    76  72  87 SE7       30.09R
N.O. DOWNTOWN*   N/A     76  73  91 VRB5      30.10R
RESERVE*         N/A     74  73  94 E5        30.09R
SLIDELL        PTCLDY    67  66  97 CALM      30.09R
BATON ROUGE    PTCLDY    73  71  93 SE5       30.08S
BOOTHVILLE     CLEAR     73  71  93 SE5       30.09S
BELLE CHASSE   PTCLDY    75  73  93 SE3       30.09R
BOGALUSA*        N/A     65  62  90 CALM      30.10S
GALLIANO*      SUNNY     76  73  91 SE5       30.07F
NEW ROADS*     PTSUNNY   73  72  96 SE6       30.08S FOG
GONZALES*      CLOUDY    72  72 100 CALM      30.08R
HAMMOND*       PTCLDY    70  66  88 CALM      30.09R
HOUMA*           N/A     75  74  96 SE5       30.07R
PORT FOURCHON* MOSUNNY   79  73  83 SE13      30.08S

$$

MSZ070-080>082-251100-
SOUTHERN MISSISSIPPI

CITY           SKY/WX    TMP DP  RH WIND       PRES   REMARKS
MCCOMB         CLEAR     68  66  93 S3        30.09S FOG
GULFPORT       PTCLDY    69  66  90 CALM      30.10R
BILOXI         MOCLDY    70  70 100 NE5       30.11R
PASCAGOULA     FOG       60  60 100 CALM      30.12R VSB 3/4

$$

COASTAL OBSERVATIONS
LAKE AND NEARSHORE STATIONS

STATION/POSITION TIME  TEMP    WIND        PRES    WAVE
                       AIR SEA DIR/SP/G            HT/PER
                 (UTC) (F)     (DEG/KT/KT) (MB)    (FT/S)
PASCAGOULA       0900   76     140/  4/  6 1018.6
WAVELAND YACHT   0900   77 78  200/  6/  8 1018.7
GRAND ISLE       0900   78 81  160/  7/ 13 1018.2
SOUTHWEST PASS   0900          150/  7/ 12   N/A
NEW CANAL        0900   75 80  140/  3/  5 1017.8
SHELL BEACH      0900   75 81  150/  7/  8 1018.4

OFFSHORE STATIONS

STATION/POSITION TIME  TEMP    WIND        PRES    WAVE
                       AIR SEA DIR/SP/G            HT/PER
                 (UTC) (F)     (DEG/KT/KT) (MB)    (FT/S)
64 S DAUPHIN ISL 0900   77 77  150/  6/  8 1019.0

$$





USA.gov is the U.S. government's official web portal to all federal, state and local government web resources and services.